Year,Month,Day,Hour,Minute,Value (Times are PST for temperature in C)
2015,06,23,00,00,15.00
2015,06,23,00,01,15.00
2015,06,23,00,02,15.00
2015,06,23,00,03,15.00
2015,06,23,00,04,14.90
2015,06,23,00,05,14.90
2015,06,23,00,06,14.80
2015,06,23,00,07,14.80
2015,06,23,00,08,14.80
2015,06,23,00,09,14.70
2015,06,23,00,10,14.70
2015,06,23,00,11,14.70
2015,06,23,00,12,14.70
2015,06,23,00,13,14.60
2015,06,23,00,14,14.60
2015,06,23,00,15,14.60
2015,06,23,00,16,14.60
2015,06,23,00,17,14.50
2015,06,23,00,18,14.50
2015,06,23,00,19,14.50
2015,06,23,00,20,14.50
2015,06,23,00,21,14.40
2015,06,23,00,22,14.40
2015,06,23,00,23,14.40
2015,06,23,00,24,14.40
2015,06,23,00,25,14.40
2015,06,23,00,26,14.40
2015,06,23,00,27,14.40
2015,06,23,00,28,14.40
2015,06,23,00,29,14.40
2015,06,23,00,30,14.40
2015,06,23,00,31,14.40
2015,06,23,00,32,14.40
2015,06,23,00,33,14.50
2015,06,23,00,34,14.40
2015,06,23,00,35,14.50
2015,06,23,00,36,14.40
2015,06,23,00,37,14.40
2015,06,23,00,38,14.40
2015,06,23,00,39,14.40
2015,06,23,00,40,14.40
2015,06,23,00,41,14.30
2015,06,23,00,42,14.30
2015,06,23,00,43,14.30
2015,06,23,00,44,14.30
2015,06,23,00,45,14.30
2015,06,23,00,46,14.30
2015,06,23,00,47,14.40
2015,06,23,00,48,14.50
2015,06,23,00,49,14.50
2015,06,23,00,50,14.60
2015,06,23,00,51,14.70
2015,06,23,00,52,14.70
2015,06,23,00,53,14.80
2015,06,23,00,54,14.80
2015,06,23,00,55,14.80
2015,06,23,00,56,14.80
2015,06,23,00,57,14.70
2015,06,23,00,58,14.70
2015,06,23,00,59,14.60
2015,06,23,01,00,14.60
2015,06,23,01,01,14.50
2015,06,23,01,02,14.40
2015,06,23,01,03,14.40
2015,06,23,01,04,14.40
2015,06,23,01,05,14.30
2015,06,23,01,06,14.30
2015,06,23,01,07,14.20
2015,06,23,01,08,14.20
2015,06,23,01,09,14.10
2015,06,23,01,10,14.00
2015,06,23,01,11,14.00
2015,06,23,01,12,13.90
2015,06,23,01,13,13.90
2015,06,23,01,14,13.80
2015,06,23,01,15,13.80
2015,06,23,01,16,13.90
2015,06,23,01,17,13.90
2015,06,23,01,18,13.90
2015,06,23,01,19,13.80
2015,06,23,01,20,13.80
2015,06,23,01,21,13.80
2015,06,23,01,22,13.80
2015,06,23,01,23,13.90
2015,06,23,01,24,13.90
2015,06,23,01,25,14.00
2015,06,23,01,26,14.00
2015,06,23,01,27,14.00
2015,06,23,01,28,14.00
2015,06,23,01,29,14.00
2015,06,23,01,30,14.00
2015,06,23,01,31,14.00
2015,06,23,01,32,14.00
2015,06,23,01,33,14.00
2015,06,23,01,34,13.90
2015,06,23,01,35,13.90
2015,06,23,01,36,14.00
2015,06,23,01,37,14.00
2015,06,23,01,38,14.10
2015,06,23,01,39,14.10
2015,06,23,01,40,14.10
2015,06,23,01,41,14.10
2015,06,23,01,42,14.20
2015,06,23,01,43,14.20
2015,06,23,01,44,14.20
2015,06,23,01,45,14.20
2015,06,23,01,46,14.20
2015,06,23,01,47,14.20
2015,06,23,01,48,14.10
2015,06,23,01,49,14.10
2015,06,23,01,50,14.10
2015,06,23,01,51,14.10
2015,06,23,01,52,14.10
2015,06,23,01,53,14.10
2015,06,23,01,54,14.00
2015,06,23,01,55,14.00
2015,06,23,01,56,14.00
2015,06,23,01,57,13.90
2015,06,23,01,58,13.90
2015,06,23,01,59,13.90
2015,06,23,02,00,13.90
2015,06,23,02,01,13.90
2015,06,23,02,02,13.80
2015,06,23,02,03,13.80
2015,06,23,02,04,13.80
2015,06,23,02,05,13.80
2015,06,23,02,06,13.80
2015,06,23,02,07,13.80
2015,06,23,02,08,13.80
2015,06,23,02,09,13.80
2015,06,23,02,10,13.90
2015,06,23,02,11,13.90
2015,06,23,02,12,13.90
2015,06,23,02,13,14.00
2015,06,23,02,14,14.00
2015,06,23,02,15,14.10
2015,06,23,02,16,14.10
2015,06,23,02,17,14.10
2015,06,23,02,18,14.10
2015,06,23,02,19,14.10
2015,06,23,02,20,14.20
2015,06,23,02,21,14.20
2015,06,23,02,22,14.20
2015,06,23,02,23,14.20
2015,06,23,02,24,14.20
2015,06,23,02,25,14.20
2015,06,23,02,26,14.10
2015,06,23,02,27,14.10
2015,06,23,02,28,14.10
2015,06,23,02,29,14.00
2015,06,23,02,30,14.00
2015,06,23,02,31,13.90
2015,06,23,02,32,13.90
2015,06,23,02,33,13.90
2015,06,23,02,34,13.80
2015,06,23,02,35,13.80
2015,06,23,02,36,13.80
2015,06,23,02,37,13.80
2015,06,23,02,38,13.80
2015,06,23,02,39,13.80
2015,06,23,02,40,13.70
2015,06,23,02,41,13.70
2015,06,23,02,42,13.60
2015,06,23,02,43,13.60
2015,06,23,02,44,13.50
2015,06,23,02,45,13.40
2015,06,23,02,46,13.40
2015,06,23,02,47,13.30
2015,06,23,02,48,13.30
2015,06,23,02,49,13.20
2015,06,23,02,50,13.10
2015,06,23,02,51,13.00
2015,06,23,02,52,12.90
2015,06,23,02,53,12.80
2015,06,23,02,54,12.80
2015,06,23,02,55,12.70
2015,06,23,02,56,12.60
2015,06,23,02,57,12.60
2015,06,23,02,58,12.50
2015,06,23,02,59,12.50
2015,06,23,03,00,12.50
2015,06,23,03,01,12.40
2015,06,23,03,02,12.40
2015,06,23,03,03,12.40
2015,06,23,03,04,12.30
2015,06,23,03,05,12.30
2015,06,23,03,06,12.20
2015,06,23,03,07,12.20
2015,06,23,03,08,12.10
2015,06,23,03,09,12.10
2015,06,23,03,10,12.10
2015,06,23,03,11,12.10
2015,06,23,03,12,12.00
2015,06,23,03,13,12.00
2015,06,23,03,14,12.00
2015,06,23,03,15,11.90
2015,06,23,03,16,11.90
2015,06,23,03,17,11.90
2015,06,23,03,18,11.90
2015,06,23,03,19,11.80
2015,06,23,03,20,11.80
2015,06,23,03,21,11.80
2015,06,23,03,22,11.80
2015,06,23,03,23,11.80
2015,06,23,03,24,11.70
2015,06,23,03,25,11.70
2015,06,23,03,26,11.70
2015,06,23,03,27,11.70
2015,06,23,03,28,11.60
2015,06,23,03,29,11.60
2015,06,23,03,30,11.60
2015,06,23,03,31,11.60
2015,06,23,03,32,11.50
2015,06,23,03,33,11.50
2015,06,23,03,34,11.50
2015,06,23,03,35,11.40
2015,06,23,03,36,11.40
2015,06,23,03,37,11.40
2015,06,23,03,38,11.40
2015,06,23,03,39,11.40
2015,06,23,03,40,11.40
2015,06,23,03,41,11.30
2015,06,23,03,42,11.30
2015,06,23,03,43,11.30
2015,06,23,03,44,11.30
2015,06,23,03,45,11.30
2015,06,23,03,46,11.30
2015,06,23,03,47,11.30
2015,06,23,03,48,11.30
2015,06,23,03,49,11.30
2015,06,23,03,50,11.30
2015,06,23,03,51,11.30
2015,06,23,03,52,11.30
2015,06,23,03,53,11.30
2015,06,23,03,54,11.30
2015,06,23,03,55,11.40
2015,06,23,03,56,11.40
2015,06,23,03,57,11.50
2015,06,23,03,58,11.60
2015,06,23,03,59,11.60
2015,06,23,04,00,11.60
2015,06,23,04,01,11.70
2015,06,23,04,02,11.70
2015,06,23,04,03,11.70
2015,06,23,04,04,11.70
2015,06,23,04,05,11.70
2015,06,23,04,06,11.70
2015,06,23,04,07,11.70
2015,06,23,04,08,11.70
2015,06,23,04,09,11.60
2015,06,23,04,10,11.60
2015,06,23,04,11,11.50
2015,06,23,04,12,11.50
2015,06,23,04,13,11.40
2015,06,23,04,14,11.40
2015,06,23,04,15,11.30
2015,06,23,04,16,11.30
2015,06,23,04,17,11.30
2015,06,23,04,18,11.20
2015,06,23,04,19,11.20
2015,06,23,04,20,11.20
2015,06,23,04,21,11.20
2015,06,23,04,22,11.20
2015,06,23,04,23,11.20
2015,06,23,04,24,11.10
2015,06,23,04,25,11.10
2015,06,23,04,26,11.10
2015,06,23,04,27,11.00
2015,06,23,04,28,11.00
2015,06,23,04,29,11.00
2015,06,23,04,30,10.90
2015,06,23,04,31,10.90
2015,06,23,04,32,10.90
2015,06,23,04,33,10.80
2015,06,23,04,34,10.80
2015,06,23,04,35,10.80
2015,06,23,04,36,10.80
2015,06,23,04,37,10.70
2015,06,23,04,38,10.70
2015,06,23,04,39,10.70
2015,06,23,04,40,10.70
2015,06,23,04,41,10.70
2015,06,23,04,42,10.60
2015,06,23,04,43,10.60
2015,06,23,04,44,10.60
2015,06,23,04,45,10.60
2015,06,23,04,46,10.60
2015,06,23,04,47,10.60
2015,06,23,04,48,10.50
2015,06,23,04,49,10.50
2015,06,23,04,50,10.50
2015,06,23,04,51,10.50
2015,06,23,04,52,10.40
2015,06,23,04,53,10.40
2015,06,23,04,54,10.50
2015,06,23,04,55,10.50
2015,06,23,04,56,10.50
2015,06,23,04,57,10.60
2015,06,23,04,58,10.70
2015,06,23,04,59,10.80
2015,06,23,05,00,10.90
2015,06,23,05,01,11.10
2015,06,23,05,02,11.30
2015,06,23,05,03,11.40
2015,06,23,05,04,11.50
2015,06,23,05,05,11.70
2015,06,23,05,06,11.80
2015,06,23,05,07,11.80
2015,06,23,05,08,11.80
2015,06,23,05,09,11.80
2015,06,23,05,10,11.80
2015,06,23,05,11,11.80
2015,06,23,05,12,11.80
2015,06,23,05,13,11.80
2015,06,23,05,14,11.80
2015,06,23,05,15,11.80
2015,06,23,05,16,11.80
2015,06,23,05,17,11.80
2015,06,23,05,18,11.80
2015,06,23,05,19,11.80
2015,06,23,05,20,11.70
2015,06,23,05,21,11.70
2015,06,23,05,22,11.60
2015,06,23,05,23,11.60
2015,06,23,05,24,11.50
2015,06,23,05,25,11.40
2015,06,23,05,26,11.40
2015,06,23,05,27,11.30
2015,06,23,05,28,11.30
2015,06,23,05,29,11.20
2015,06,23,05,30,11.20
2015,06,23,05,31,11.20
2015,06,23,05,32,11.20
2015,06,23,05,33,11.20
2015,06,23,05,34,11.20
2015,06,23,05,35,11.20
2015,06,23,05,36,11.20
2015,06,23,05,37,11.20
2015,06,23,05,38,11.20
2015,06,23,05,39,11.20
2015,06,23,05,40,11.20
2015,06,23,05,41,11.20
2015,06,23,05,42,11.20
2015,06,23,05,43,11.20
2015,06,23,05,44,11.20
2015,06,23,05,45,11.20
2015,06,23,05,46,11.20
2015,06,23,05,47,11.20
2015,06,23,05,48,11.20
2015,06,23,05,49,11.20
2015,06,23,05,50,11.20
2015,06,23,05,51,11.20
2015,06,23,05,52,11.20
2015,06,23,05,53,11.20
2015,06,23,05,54,11.20
2015,06,23,05,55,11.20
2015,06,23,05,56,11.20
2015,06,23,05,57,11.20
2015,06,23,05,58,11.20
2015,06,23,05,59,11.30
2015,06,23,06,00,11.30
2015,06,23,06,01,11.30
2015,06,23,06,02,11.30
2015,06,23,06,03,11.30
2015,06,23,06,04,11.40
2015,06,23,06,05,11.40
2015,06,23,06,06,11.40
2015,06,23,06,07,11.40
2015,06,23,06,08,11.50
2015,06,23,06,09,11.50
2015,06,23,06,10,11.60
2015,06,23,06,11,11.60
2015,06,23,06,12,11.60
2015,06,23,06,13,11.70
2015,06,23,06,14,11.70
2015,06,23,06,15,11.70
2015,06,23,06,16,11.80
2015,06,23,06,17,11.80
2015,06,23,06,18,11.90
2015,06,23,06,19,12.00
2015,06,23,06,20,12.00
2015,06,23,06,21,12.10
2015,06,23,06,22,12.20
2015,06,23,06,23,12.30
2015,06,23,06,24,12.40
2015,06,23,06,25,12.40
2015,06,23,06,26,12.50
2015,06,23,06,27,12.60
2015,06,23,06,28,12.70
2015,06,23,06,29,12.80
2015,06,23,06,30,12.80
2015,06,23,06,31,12.90
2015,06,23,06,32,12.90
2015,06,23,06,33,13.00
2015,06,23,06,34,13.10
2015,06,23,06,35,13.10
2015,06,23,06,36,13.20
2015,06,23,06,37,13.30
2015,06,23,06,38,13.30
2015,06,23,06,39,13.40
2015,06,23,06,40,13.40
2015,06,23,06,41,13.50
2015,06,23,06,42,13.60
2015,06,23,06,43,13.70
2015,06,23,06,44,13.70
2015,06,23,06,45,13.80
2015,06,23,06,46,13.90
2015,06,23,06,47,14.00
2015,06,23,06,48,14.20
2015,06,23,06,49,14.30
2015,06,23,06,50,14.40
2015,06,23,06,51,14.50
2015,06,23,06,52,14.60
2015,06,23,06,53,14.70
2015,06,23,06,54,14.80
2015,06,23,06,55,14.90
2015,06,23,06,56,15.00
2015,06,23,06,57,15.00
2015,06,23,06,58,15.00
2015,06,23,06,59,15.10
2015,06,23,07,00,15.20
2015,06,23,07,01,15.30
2015,06,23,07,02,15.30
2015,06,23,07,03,15.40
2015,06,23,07,04,15.40
2015,06,23,07,05,15.50
2015,06,23,07,06,15.60
2015,06,23,07,07,15.60
2015,06,23,07,08,15.60
2015,06,23,07,09,15.70
2015,06,23,07,10,15.70
2015,06,23,07,11,15.80
2015,06,23,07,12,15.80
2015,06,23,07,13,15.80
2015,06,23,07,14,15.90
2015,06,23,07,15,16.00
2015,06,23,07,16,16.00
2015,06,23,07,17,16.10
2015,06,23,07,18,16.10
2015,06,23,07,19,16.20
2015,06,23,07,20,16.20
2015,06,23,07,21,16.20
2015,06,23,07,22,16.30
2015,06,23,07,23,16.30
2015,06,23,07,24,16.40
2015,06,23,07,25,16.50
2015,06,23,07,26,16.50
2015,06,23,07,27,16.60
2015,06,23,07,28,16.60
2015,06,23,07,29,16.70
2015,06,23,07,30,16.80
2015,06,23,07,31,17.00
2015,06,23,07,32,17.10
2015,06,23,07,33,17.20
2015,06,23,07,34,17.30
2015,06,23,07,35,17.30
2015,06,23,07,36,17.30
2015,06,23,07,37,17.30
2015,06,23,07,38,17.30
2015,06,23,07,39,17.30
2015,06,23,07,40,17.30
2015,06,23,07,41,17.30
2015,06,23,07,42,17.30
2015,06,23,07,43,17.20
2015,06,23,07,44,17.20
2015,06,23,07,45,17.20
2015,06,23,07,46,17.20
2015,06,23,07,47,17.20
2015,06,23,07,48,17.20
2015,06,23,07,49,17.20
2015,06,23,07,50,17.20
2015,06,23,07,51,17.20
2015,06,23,07,52,17.20
2015,06,23,07,53,17.20
2015,06,23,07,54,17.20
2015,06,23,07,55,17.20
2015,06,23,07,56,17.20
2015,06,23,07,57,17.20
2015,06,23,07,58,17.20
2015,06,23,07,59,17.20
2015,06,23,08,00,17.20
2015,06,23,08,01,17.20
2015,06,23,08,02,17.30
2015,06,23,08,03,17.40
2015,06,23,08,04,17.50
2015,06,23,08,05,17.50
2015,06,23,08,06,17.60
2015,06,23,08,07,17.70
2015,06,23,08,08,17.80
2015,06,23,08,09,17.90
2015,06,23,08,10,17.90
2015,06,23,08,11,18.00
2015,06,23,08,12,18.10
2015,06,23,08,13,18.20
2015,06,23,08,14,18.20
2015,06,23,08,15,18.30
2015,06,23,08,16,18.30
2015,06,23,08,17,18.40
2015,06,23,08,18,18.40
2015,06,23,08,19,18.50
2015,06,23,08,20,18.60
2015,06,23,08,21,18.60
2015,06,23,08,22,18.60
2015,06,23,08,23,18.60
2015,06,23,08,24,18.60
2015,06,23,08,25,18.60
2015,06,23,08,26,18.50
2015,06,23,08,27,18.50
2015,06,23,08,28,18.50
2015,06,23,08,29,18.60
2015,06,23,08,30,18.60
2015,06,23,08,31,18.60
2015,06,23,08,32,18.60
2015,06,23,08,33,18.60
2015,06,23,08,34,18.60
2015,06,23,08,35,18.60
2015,06,23,08,36,18.60
2015,06,23,08,37,18.60
2015,06,23,08,38,18.60
2015,06,23,08,39,18.70
2015,06,23,08,40,18.70
2015,06,23,08,41,18.80
2015,06,23,08,42,18.90
2015,06,23,08,43,18.90
2015,06,23,08,44,19.00
2015,06,23,08,45,19.00
2015,06,23,08,46,19.10
2015,06,23,08,47,19.10
2015,06,23,08,48,19.00
2015,06,23,08,49,18.90
2015,06,23,08,50,18.90
2015,06,23,08,51,18.90
2015,06,23,08,52,18.90
2015,06,23,08,53,19.00
2015,06,23,08,54,19.00
2015,06,23,08,55,19.00
2015,06,23,08,56,19.00
2015,06,23,08,57,18.90
2015,06,23,08,58,18.90
2015,06,23,08,59,18.80
2015,06,23,09,00,18.80
2015,06,23,09,01,18.80
2015,06,23,09,02,18.90
2015,06,23,09,03,18.80
2015,06,23,09,04,18.80
2015,06,23,09,05,18.80
2015,06,23,09,06,18.70
2015,06,23,09,07,18.60
2015,06,23,09,08,18.60
2015,06,23,09,09,18.60
2015,06,23,09,10,18.60
2015,06,23,09,11,18.60
2015,06,23,09,12,18.60
2015,06,23,09,13,18.60
2015,06,23,09,14,18.60
2015,06,23,09,15,18.60
2015,06,23,09,16,18.60
2015,06,23,09,17,18.60
2015,06,23,09,18,18.50
2015,06,23,09,19,18.50
2015,06,23,09,20,18.50
2015,06,23,09,21,18.50
2015,06,23,09,22,18.50
2015,06,23,09,23,18.60
2015,06,23,09,24,18.70
2015,06,23,09,25,18.70
2015,06,23,09,26,18.70
2015,06,23,09,27,18.70
2015,06,23,09,28,18.70
2015,06,23,09,29,18.80
2015,06,23,09,30,18.70
2015,06,23,09,31,18.70
2015,06,23,09,32,18.70
2015,06,23,09,33,18.70
2015,06,23,09,34,18.70
2015,06,23,09,35,18.70
2015,06,23,09,36,18.70
2015,06,23,09,37,18.70
2015,06,23,09,38,18.70
2015,06,23,09,39,18.60
2015,06,23,09,40,18.60
2015,06,23,09,41,18.60
2015,06,23,09,42,18.60
2015,06,23,09,43,18.60
2015,06,23,09,44,18.60
2015,06,23,09,45,18.70
2015,06,23,09,46,18.70
2015,06,23,09,47,18.70
2015,06,23,09,48,18.70
2015,06,23,09,49,18.80
2015,06,23,09,50,18.80
2015,06,23,09,51,18.90
2015,06,23,09,52,18.90
2015,06,23,09,53,19.00
2015,06,23,09,54,19.00
2015,06,23,09,55,19.10
2015,06,23,09,56,19.10
2015,06,23,09,57,19.00
2015,06,23,09,58,18.90
2015,06,23,09,59,18.90
2015,06,23,10,00,18.90
2015,06,23,10,01,19.00
2015,06,23,10,02,19.00
2015,06,23,10,03,19.00
2015,06,23,10,04,19.00
2015,06,23,10,05,19.00
2015,06,23,10,06,19.00
2015,06,23,10,07,19.10
2015,06,23,10,08,19.10
2015,06,23,10,09,19.20
2015,06,23,10,10,19.20
2015,06,23,10,11,19.30
2015,06,23,10,12,19.30
2015,06,23,10,13,19.20
2015,06,23,10,14,19.20
2015,06,23,10,15,19.20
2015,06,23,10,16,19.10
2015,06,23,10,17,19.20
2015,06,23,10,18,19.20
2015,06,23,10,19,19.20
2015,06,23,10,20,19.20
2015,06,23,10,21,19.30
2015,06,23,10,22,19.30
2015,06,23,10,23,19.30
2015,06,23,10,24,19.30
2015,06,23,10,25,19.30
2015,06,23,10,26,19.30
2015,06,23,10,27,19.30
2015,06,23,10,28,19.30
2015,06,23,10,29,19.30
2015,06,23,10,30,19.30
2015,06,23,10,31,19.20
2015,06,23,10,32,19.20
2015,06,23,10,33,19.20
2015,06,23,10,34,19.10
2015,06,23,10,35,19.10
2015,06,23,10,36,19.00
2015,06,23,10,37,19.00
2015,06,23,10,38,18.90
2015,06,23,10,39,18.90
2015,06,23,10,40,18.90
2015,06,23,10,41,18.90
2015,06,23,10,42,18.80
2015,06,23,10,43,18.80
2015,06,23,10,44,18.80
2015,06,23,10,45,18.80
2015,06,23,10,46,18.70
2015,06,23,10,47,18.60
2015,06,23,10,48,18.60
2015,06,23,10,49,18.70
2015,06,23,10,50,18.80
2015,06,23,10,51,18.90
2015,06,23,10,52,19.00
2015,06,23,10,53,19.10
2015,06,23,10,54,19.20
2015,06,23,10,55,19.30
2015,06,23,10,56,19.30
2015,06,23,10,57,19.40
2015,06,23,10,58,19.40
2015,06,23,10,59,19.40
2015,06,23,11,00,19.30
2015,06,23,11,01,19.30
2015,06,23,11,02,19.30
2015,06,23,11,03,19.30
2015,06,23,11,04,19.30
2015,06,23,11,05,19.40
2015,06,23,11,06,19.40
2015,06,23,11,07,19.40
2015,06,23,11,08,19.50
2015,06,23,11,09,19.50
2015,06,23,11,10,19.50
2015,06,23,11,11,19.50
2015,06,23,11,12,19.40
2015,06,23,11,13,19.40
2015,06,23,11,14,19.40
2015,06,23,11,15,19.50
2015,06,23,11,16,19.50
2015,06,23,11,17,19.40
2015,06,23,11,18,19.30
2015,06,23,11,19,19.20
2015,06,23,11,20,19.20
2015,06,23,11,21,19.20
2015,06,23,11,22,19.20
2015,06,23,11,23,19.30
2015,06,23,11,24,19.40
2015,06,23,11,25,19.40
2015,06,23,11,26,19.50
2015,06,23,11,27,19.40
2015,06,23,11,28,19.40
2015,06,23,11,29,19.30
2015,06,23,11,30,19.40
2015,06,23,11,31,19.50
2015,06,23,11,32,19.50
2015,06,23,11,33,19.70
2015,06,23,11,34,19.70
2015,06,23,11,35,19.70
2015,06,23,11,36,19.70
2015,06,23,11,37,19.60
2015,06,23,11,38,19.60
2015,06,23,11,39,19.70
2015,06,23,11,40,19.70
2015,06,23,11,41,19.70
2015,06,23,11,42,19.70
2015,06,23,11,43,19.70
2015,06,23,11,44,19.80
2015,06,23,11,45,19.90
2015,06,23,11,46,20.00
2015,06,23,11,47,20.00
2015,06,23,11,48,20.00
2015,06,23,11,49,20.10
2015,06,23,11,50,20.10
2015,06,23,11,51,20.10
2015,06,23,11,52,20.10
2015,06,23,11,53,20.20
2015,06,23,11,54,20.30
2015,06,23,11,55,20.30
2015,06,23,11,56,20.30
2015,06,23,11,57,20.30
2015,06,23,11,58,20.20
2015,06,23,11,59,20.10
2015,06,23,12,00,20.10
2015,06,23,12,01,20.00
2015,06,23,12,02,19.90
2015,06,23,12,03,19.80
2015,06,23,12,04,19.80
2015,06,23,12,05,19.80
2015,06,23,12,06,19.80
2015,06,23,12,07,19.80
2015,06,23,12,08,19.80
2015,06,23,12,09,19.80
2015,06,23,12,10,19.80
2015,06,23,12,11,19.80
2015,06,23,12,12,19.90
2015,06,23,12,13,19.90
2015,06,23,12,14,19.90
2015,06,23,12,15,19.90
2015,06,23,12,16,19.90
2015,06,23,12,17,19.90
2015,06,23,12,18,19.90
2015,06,23,12,19,20.00
2015,06,23,12,20,20.00
2015,06,23,12,21,20.00
2015,06,23,12,22,20.00
2015,06,23,12,23,20.10
2015,06,23,12,24,20.10
2015,06,23,12,25,20.20
2015,06,23,12,26,20.10
2015,06,23,12,27,20.10
2015,06,23,12,28,20.00
2015,06,23,12,29,20.00
2015,06,23,12,30,19.90
2015,06,23,12,31,19.90
2015,06,23,12,32,20.00
2015,06,23,12,33,20.00
2015,06,23,12,34,20.00
2015,06,23,12,35,20.00
2015,06,23,12,36,20.10
2015,06,23,12,37,20.10
2015,06,23,12,38,20.20
2015,06,23,12,39,20.20
2015,06,23,12,40,20.20
2015,06,23,12,41,20.10
2015,06,23,12,42,20.10
2015,06,23,12,43,20.10
2015,06,23,12,44,20.20
2015,06,23,12,45,20.30
2015,06,23,12,46,20.40
2015,06,23,12,47,20.50
2015,06,23,12,48,20.70
2015,06,23,12,49,20.80
2015,06,23,12,50,20.80
2015,06,23,12,51,20.90
2015,06,23,12,52,20.90
2015,06,23,12,53,20.80
2015,06,23,12,54,20.70
2015,06,23,12,55,20.70
2015,06,23,12,56,20.70
2015,06,23,12,57,20.60
2015,06,23,12,58,20.60
2015,06,23,12,59,20.60
2015,06,23,13,00,20.60
2015,06,23,13,01,20.70
2015,06,23,13,02,20.80
2015,06,23,13,03,20.80
2015,06,23,13,04,20.70
2015,06,23,13,05,20.60
2015,06,23,13,06,20.50
2015,06,23,13,07,20.50
2015,06,23,13,08,20.40
2015,06,23,13,09,20.30
2015,06,23,13,10,20.30
2015,06,23,13,11,20.40
2015,06,23,13,12,20.40
2015,06,23,13,13,20.40
2015,06,23,13,14,20.40
2015,06,23,13,15,20.40
2015,06,23,13,16,20.50
2015,06,23,13,17,20.60
2015,06,23,13,18,20.70
2015,06,23,13,19,20.80
2015,06,23,13,20,20.80
2015,06,23,13,21,21.00
2015,06,23,13,22,21.10
2015,06,23,13,23,21.10
2015,06,23,13,24,21.00
2015,06,23,13,25,20.90
2015,06,23,13,26,20.80
2015,06,23,13,27,20.80
2015,06,23,13,28,20.80
2015,06,23,13,29,20.80
2015,06,23,13,30,20.90
2015,06,23,13,31,21.10
2015,06,23,13,32,21.20
2015,06,23,13,33,21.20
2015,06,23,13,34,21.10
2015,06,23,13,35,21.10
2015,06,23,13,36,21.00
2015,06,23,13,37,21.00
2015,06,23,13,38,21.00
2015,06,23,13,39,21.00
2015,06,23,13,40,21.10
2015,06,23,13,41,21.00
2015,06,23,13,42,20.90
2015,06,23,13,43,20.80
2015,06,23,13,44,20.80
2015,06,23,13,45,20.90
2015,06,23,13,46,21.00
2015,06,23,13,47,21.10
2015,06,23,13,48,21.20
2015,06,23,13,49,21.20
2015,06,23,13,50,21.30
2015,06,23,13,51,21.30
2015,06,23,13,52,21.40
2015,06,23,13,53,21.30
2015,06,23,13,54,21.30
2015,06,23,13,55,21.30
2015,06,23,13,56,21.30
2015,06,23,13,57,21.30
2015,06,23,13,58,21.40
2015,06,23,13,59,21.40
2015,06,23,14,00,21.50
2015,06,23,14,01,21.60
2015,06,23,14,02,21.70
2015,06,23,14,03,21.80
2015,06,23,14,04,21.90
2015,06,23,14,05,22.10
2015,06,23,14,06,22.10
2015,06,23,14,07,22.20
2015,06,23,14,08,22.30
2015,06,23,14,09,22.20
2015,06,23,14,10,22.20
2015,06,23,14,11,22.20
2015,06,23,14,12,22.20
2015,06,23,14,13,22.20
2015,06,23,14,14,22.10
2015,06,23,14,15,22.10
2015,06,23,14,16,22.10
2015,06,23,14,17,22.20
2015,06,23,14,18,22.10
2015,06,23,14,19,22.10
2015,06,23,14,20,22.10
2015,06,23,14,21,22.10
2015,06,23,14,22,22.00
2015,06,23,14,23,22.00
2015,06,23,14,24,22.00
2015,06,23,14,25,21.90
2015,06,23,14,26,21.90
2015,06,23,14,27,21.80
2015,06,23,14,28,21.80
2015,06,23,14,29,21.80
2015,06,23,14,30,21.80
2015,06,23,14,31,21.70
2015,06,23,14,32,21.70
2015,06,23,14,33,21.70
2015,06,23,14,34,21.70
2015,06,23,14,35,21.70
2015,06,23,14,36,21.70
2015,06,23,14,37,21.80
2015,06,23,14,38,21.80
2015,06,23,14,39,21.90
2015,06,23,14,40,22.00
2015,06,23,14,41,22.00
2015,06,23,14,42,22.00
2015,06,23,14,43,22.00
2015,06,23,14,44,21.90
2015,06,23,14,45,21.80
2015,06,23,14,46,21.80
2015,06,23,14,47,21.70
2015,06,23,14,48,21.70
2015,06,23,14,49,21.70
2015,06,23,14,50,21.60
2015,06,23,14,51,21.60
2015,06,23,14,52,21.60
2015,06,23,14,53,21.60
2015,06,23,14,54,21.70
2015,06,23,14,55,21.80
2015,06,23,14,56,21.80
2015,06,23,14,57,21.80
2015,06,23,14,58,21.90
2015,06,23,14,59,21.90
2015,06,23,15,00,21.90
2015,06,23,15,01,22.00
2015,06,23,15,02,22.00
2015,06,23,15,03,22.20
2015,06,23,15,04,22.30
2015,06,23,15,05,22.30
2015,06,23,15,06,22.30
2015,06,23,15,07,22.30
2015,06,23,15,08,22.30
2015,06,23,15,09,22.20
2015,06,23,15,10,22.30
2015,06,23,15,11,22.30
2015,06,23,15,12,22.30
2015,06,23,15,13,22.30
2015,06,23,15,14,22.30
2015,06,23,15,15,22.30
2015,06,23,15,16,22.30
2015,06,23,15,17,22.30
2015,06,23,15,18,22.30
2015,06,23,15,19,22.40
2015,06,23,15,20,22.40
2015,06,23,15,21,22.40
2015,06,23,15,22,22.50
2015,06,23,15,23,22.50
2015,06,23,15,24,22.50
2015,06,23,15,25,22.50
2015,06,23,15,26,22.60
2015,06,23,15,27,22.60
2015,06,23,15,28,22.60
2015,06,23,15,29,22.60
2015,06,23,15,30,22.70
2015,06,23,15,31,22.70
2015,06,23,15,32,22.70
2015,06,23,15,33,22.60
2015,06,23,15,34,22.60
2015,06,23,15,35,22.60
2015,06,23,15,36,22.60
2015,06,23,15,37,22.60
2015,06,23,15,38,22.70
2015,06,23,15,39,22.70
2015,06,23,15,40,22.70
2015,06,23,15,41,22.70
2015,06,23,15,42,22.70
2015,06,23,15,43,22.70
2015,06,23,15,44,22.60
2015,06,23,15,45,22.60
2015,06,23,15,46,22.60
2015,06,23,15,47,22.70
2015,06,23,15,48,22.80
2015,06,23,15,49,22.80
2015,06,23,15,50,22.80
2015,06,23,15,51,22.80
2015,06,23,15,52,22.80
2015,06,23,15,53,22.80
2015,06,23,15,54,22.80
2015,06,23,15,55,22.80
2015,06,23,15,56,22.80
2015,06,23,15,57,22.90
2015,06,23,15,58,22.90
2015,06,23,15,59,23.00
2015,06,23,16,00,23.10
2015,06,23,16,01,23.20
2015,06,23,16,02,23.30
2015,06,23,16,03,23.30
2015,06,23,16,04,23.30
2015,06,23,16,05,23.20
2015,06,23,16,06,23.10
2015,06,23,16,07,23.10
2015,06,23,16,08,23.10
2015,06,23,16,09,23.10
2015,06,23,16,10,23.20
2015,06,23,16,11,23.20
2015,06,23,16,12,23.20
2015,06,23,16,13,23.10
2015,06,23,16,14,23.00
2015,06,23,16,15,22.90
2015,06,23,16,16,22.80
2015,06,23,16,17,22.80
2015,06,23,16,18,22.80
2015,06,23,16,19,22.70
2015,06,23,16,20,22.70
2015,06,23,16,21,22.80
2015,06,23,16,22,22.80
2015,06,23,16,23,22.90
2015,06,23,16,24,23.00
2015,06,23,16,25,23.00
2015,06,23,16,26,22.90
2015,06,23,16,27,22.90
2015,06,23,16,28,22.80
2015,06,23,16,29,22.70
2015,06,23,16,30,22.70
2015,06,23,16,31,22.60
2015,06,23,16,32,22.60
2015,06,23,16,33,22.50
2015,06,23,16,34,22.60
2015,06,23,16,35,22.60
2015,06,23,16,36,22.60
2015,06,23,16,37,22.70
2015,06,23,16,38,22.70
2015,06,23,16,39,22.70
2015,06,23,16,40,22.70
2015,06,23,16,41,22.80
2015,06,23,16,42,22.80
2015,06,23,16,43,22.80
2015,06,23,16,44,22.80
2015,06,23,16,45,22.80
2015,06,23,16,46,22.80
2015,06,23,16,47,22.80
2015,06,23,16,48,22.80
2015,06,23,16,49,22.80
2015,06,23,16,50,22.80
2015,06,23,16,51,22.80
2015,06,23,16,52,22.80
2015,06,23,16,53,22.80
2015,06,23,16,54,22.80
2015,06,23,16,55,22.90
2015,06,23,16,56,22.90
2015,06,23,16,57,23.00
2015,06,23,16,58,23.10
2015,06,23,16,59,23.20
2015,06,23,17,00,23.30
2015,06,23,17,01,23.30
2015,06,23,17,02,23.30
2015,06,23,17,03,23.30
2015,06,23,17,04,23.30
2015,06,23,17,05,23.20
2015,06,23,17,06,23.20
2015,06,23,17,07,23.10
2015,06,23,17,08,23.10
2015,06,23,17,09,23.00
2015,06,23,17,10,22.90
2015,06,23,17,11,22.90
2015,06,23,17,12,22.90
2015,06,23,17,13,22.90
2015,06,23,17,14,22.80
2015,06,23,17,15,22.80
2015,06,23,17,16,22.90
2015,06,23,17,17,23.00
2015,06,23,17,18,23.10
2015,06,23,17,19,23.20